Vertical_Velocity
-0 2 3 2 -1 -1 1 1 2 2 0 -2 -1 -0 1 -2 3 0 0 -2 -1 -2 -1 2 1 0 -0 2 1 -1 -1 0 0 -0 -0 -0 -1 -2 -3 -2 -1 -2 -2 -3
3 2 0 0 -1 -1 -0 0 0 0 0 -1 1 0 -1 2 -0 -0 -1 -0 -1 1 2 -1 0 -1 -1 -1 -1 0 0 0 0 1 -2 -2 -1 -2 -1 0 0 -0 1 -1
0 0 1 1 1 1 0 0 0 -1 -1 -1 1 0 -1 0 0 2 2 2 1 -0 -1 -1 1 1 1 1 1 1 -1 -0 1 1 2 2 2 3 5 2 3 -1 -3 0
1 2 1 1 0 -1 -1 -1 -1 -0 1 -0 0 -6 -4 0 1 1 -0 -0 1 2 3 2 3 3 2 1 0 1 2 2 0 -0 1 1 1 2 -0 -1 3 2 4 1
2 1 0 -0 -0 -0 -0 1 1 2 2 -0 -0 2 1 1 2 1 0 0 1 1 1 1 1 1 2 3 3 1 1 1 1 1 -1 -1 1 -6 0 4 2 2 3 0
-0 -0 -0 1 -0 -1 -0 1 0 -0 -0 -1 2 5 -1 2 -0 0 -1 -1 -0 1 1 0 -1 -1 1 2 1 1 -0 0 -0 -1 -4 1 3 7 7 2 -3 -4 -3 -1
0 -1 -1 -2 -1 0 1 -1 -4 -2 0 1 3 1 -3 1 -1 -1 -1 1 1 0 1 1 -0 -0 1 1 1 0 -1 -3 -1 2 2 3 0 -4 -5 -3 -1 0 3 5
0 -1 -0 -0 -1 -3 -3 -1 0 -2 2 1 4 -3 6 3 2 -1 1 2 0 -0 -1 -0 0 1 1 1 -1 -2 2 3 0 -2 -7 -10 -3 0 1 -1 -3 -4 -11 -7
-3 -2 -2 -1 -1 -1 1 1 0 -0 0 2 0 3 0 -1 -1 0 1 -0 0 3 2 0 0 2 1 2 3 3 1 -2 -4 2 5 3 2 0 -1 -1 -2 -1 -0 -2
-2 -1 -1 -1 -0 -0 -0 1 -0 1 -3 0 2 -2 6 0 -2 0 -1 1 -1 1 1 1 1 1 -2 -2 -0 5 3 3 1 3 3 1 1 3 2 -0 -2 1 1 0
-1 -1 -0 -0 0 -1 0 1 1 1 1 -3 -2 9 12 0 -1 -2 3 3 2 3 3 4 2 -3 -1 2 -2 -1 2 2 1 -1 0 1 2 -4 -5 -3 -3 -3 -4 -5
0 -2 -2 -3 -2 -1 0 -1 -1 -2 -4 2 -4 10 -3 2 -2 2 3 3 -1 -0 -4 -3 -1 -1 -0 -2 -1 -3 -3 -1 -0 0 -3 -6 -7 -10 -6 -7 -6 0 -2 -0
-1 -1 -5 -4 0 2 -1 -1 -3 -3 -3 5 -4 11 3 -4 1 3 2 -2 -3 -3 -3 -4 -4 -5 -4 -0 1 2 1 2 2 1 -1 -2 0 -4 -4 -2 -0 1 -1 -2
-1 -2 1 -1 -3 -1 -3 0 -1 -3 -0 -4 6 -4 7 -5 -3 -2 -3 0 1 1 -0 1 3 3 6 5 4 4 3 -3 -6 -0 -1 -1 -2 1 1 -6 -2 -1 3 3
-2 -2 -0 1 -1 -2 -1 3 -1 -0 -1 -2 2 0 -4 -0 1 -4 -2 -2 -2 -1 -0 -1 1 3 2 2 2 -1 -6 -3 -4 1 2 0 -3 -3 -1 -1 -7 -6 -6 -3
-0 -4 -3 2 0 -3 2 2 0 1 -0 2 -1 6 -2 1 1 4 1 1 0 0 2 1 2 -0 -2 -5 -3 -3 -4 2 1 0 -2 -1 0 -2 -3 -0 -1 -1 -0 -0
-0 -2 -2 1 -1 0 0 -3 -0 3 -3 0 -0 -1 3 1 1 4 -4 2 -1 -0 1 -2 -2 -3 -3 -3 -5 2 -0 -3 -0 1 -2 -2 -6 -4 -5 -2 -2 0 -1 -1
-2 -4 -3 -2 -5 -1 -2 -3 -2 -1 -4 -2 -1 -1 1 -1 -0 4 -11 5 0 -1 -6 -5 -4 -6 -5 -0 0 0 -2 -2 1 -3 -2 -5 -7 -5 -3 -1 -0 -0 -0 -1
-2 -2 -8 -5 -0 -0 11 1 0 0 11 -2 1 1 -1 -1 0 7 1 -5 -8 -4 -1 -5 -4 -2 7 3 3 -0 -1 -3 -3 -5 -3 -4 -6 -3 -1 0 -1 1 0 -1
-1 -1 -0 -2 -4 -5 -2 -0 -2 -0 -3 7 3 -1 -4 2 -2 -0 6 9 5 -2 0 3 1 -2 -1 -1 -2 -1 -2 -1 -2 -4 -4 -3 -1 -0 0 1 0 -0 -2 -2
-4 -5 -3 -2 -6 7 -0 -0 -0 -1 -0 2 -1 2 -1 -4 -0 -8 -7 -8 -4 -0 11 1 -1 0 -1 -2 1 -0 -2 -1 -3 -1 -0 -1 0 -2 -2 -1 -2 -0 0 1
-3 -8 -2 0 -5 -3 -1 -7 -3 2 4 -3 -1 -3 -6 -4 -3 -1 -1 -0 2 3 -1 -4 -1 2 3 -0 -2 2 -1 2 -0 -1 -2 -0 -0 -1 1 -2 -0 -2 -2 -1
-8 -3 -3 0 1 -5 -5 -2 2 -2 -6 -5 -5 -4 -1 1 1 -2 1 1 1 -3 -1 1 1 1 4 -0 -0 1 1 1 -0 -2 0 0 -0 -0 0 -2 0 -1 -1 -1
-3 -4 0 -8 4 -3 -2 1 0 -2 -4 -6 -1 -0 -2 -1 -7 0 2 1 0 4 -1 -3 0 3 2 -0 1 -1 1 1 -1 -1 1 0 -0 0 -2 -3 -2 -2 -1 -0
-4 -1 -4 2 0 -2 1 3 -0 -2 -3 -5 -2 -2 -4 -2 5 1 6 4 1 2 3 2 -2 -1 2 -1 2 0 1 2 1 3 2 2 2 -0 0 -1 -2 -5 -2 -2
-3 0 -6 2 -5 -1 2 2 -0 -3 -4 -1 0 -1 3 -7 -1 -4 1 -1 -4 -6 -1 -1 2 -0 -2 -1 1 -1 2 2 3 3 3 3 1 -1 -1 -2 -4 -0 -4 -4
Height
5826 5828 5829 5830 5830 5830 5831 5830 5829 5829 5828 5829 5828 5827 5827 5825 5824 5823 5822 5821 5819 5816 5814 5812 5810 5808 5805 5800 5796 5791 5787 5784 5780 5775 5770 5765 5760 5756 5751 5746 5740 5736 5731 5726
5827 5827 5828 5828 5828 5828 5828 5827 5827 5827 5827 5826 5825 5824 5823 5822 5821 5820 5818 5816 5815 5812 5810 5807 5804 5801 5798 5793 5790 5786 5781 5776 5771 5766 5761 5756 5751 5746 5741 5735 5730 5725 5720 5715
5824 5825 5825 5825 5825 5825 5825 5825 5824 5824 5824 5823 5823 5821 5820 5819 5817 5815 5814 5812 5810 5808 5805 5802 5799 5795 5792 5787 5783 5778 5772 5767 5762 5757 5752 5747 5741 5736 5730 5725 5719 5713 5706 5700
5823 5823 5823 5823 5822 5823 5823 5822 5822 5821 5821 5820 5819 5817 5815 5813 5811 5810 5809 5807 5805 5803 5799 5796 5792 5788 5783 5778 5774 5769 5764 5759 5754 5747 5742 5737 5731 5725 5720 5715 5707 5700 5694 5687
5821 5820 5820 5820 5820 5819 5819 5818 5818 5817 5816 5815 5814 5813 5810 5808 5806 5805 5804 5801 5798 5795 5791 5787 5783 5778 5773 5768 5764 5759 5753 5748 5743 5737 5731 5725 5719 5712 5705 5699 5692 5685 5678 5669
5817 5817 5817 5816 5816 5815 5814 5814 5813 5812 5811 5810 5809 5808 5805 5803 5801 5799 5797 5794 5791 5786 5782 5777 5773 5768 5763 5759 5753 5747 5742 5736 5731 5725 5719 5714 5706 5700 5693 5684 5676 5668 5660 5653
5814 5813 5812 5812 5811 5810 5809 5809 5808 5807 5805 5804 5802 5801 5799 5798 5795 5792 5789 5786 5781 5777 5772 5766 5761 5756 5751 5747 5742 5736 5729 5724 5718 5712 5705 5698 5690 5681 5674 5667 5660 5652 5645 5636
5810 5810 5808 5807 5806 5806 5804 5804 5803 5801 5800 5799 5797 5795 5794 5790 5787 5784 5781 5776 5771 5766 5761 5757 5752 5747 5742 5737 5732 5726 5720 5713 5706 5698 5690 5682 5676 5669 5660 5650 5640 5632 5624 5616
5807 5806 5805 5804 5803 5803 5800 5800 5799 5796 5795 5793 5792 5790 5786 5782 5778 5775 5772 5767 5762 5758 5753 5748 5742 5737 5733 5727 5722 5716 5709 5702 5694 5687 5680 5672 5662 5652 5642 5631 5622 5613 5603 5593
5805 5804 5802 5801 5800 5799 5797 5795 5794 5791 5789 5787 5785 5781 5777 5773 5768 5766 5763 5759 5753 5748 5743 5738 5733 5729 5723 5717 5710 5704 5697 5689 5681 5671 5660 5650 5640 5631 5622 5613 5603 5592 5582 5571
5802 5801 5801 5798 5796 5794 5793 5790 5787 5785 5782 5779 5777 5778 5771 5765 5760 5756 5753 5750 5744 5739 5735 5730 5725 5720 5713 5705 5697 5689 5680 5671 5661 5652 5643 5633 5624 5613 5603 5592 5581 5570 5560 5547
5799 5798 5796 5795 5792 5789 5786 5783 5780 5777 5774 5771 5768 5770 5764 5756 5751 5750 5746 5741 5736 5731 5726 5720 5713 5706 5697 5689 5681 5672 5664 5655 5646 5636 5626 5616 5605 5594 5583 5572 5560 5547 5534 5520
5797 5795 5793 5790 5789 5784 5780 5776 5772 5769 5765 5763 5758 5760 5754 5747 5745 5743 5739 5733 5727 5721 5715 5708 5702 5694 5685 5677 5669 5660 5650 5641 5630 5619 5609 5597 5585 5572 5560 5549 5536 5523 5507 5493
5792 5790 5788 5785 5782 5779 5773 5768 5763 5758 5756 5751 5755 5747 5750 5740 5736 5732 5727 5723 5718 5712 5705 5697 5690 5682 5673 5665 5654 5644 5633 5622 5612 5601 5589 5577 5566 5553 5540 5527 5515 5500 5487 5474
5788 5787 5784 5778 5775 5773 5767 5760 5752 5748 5746 5741 5742 5741 5735 5734 5730 5725 5720 5715 5708 5700 5693 5684 5676 5668 5658 5648 5637 5626 5614 5603 5593 5583 5571 5558 5546 5532 5519 5504 5489 5477 5465 5457
5782 5779 5776 5775 5768 5766 5762 5753 5746 5740 5737 5732 5730 5730 5726 5723 5718 5715 5709 5703 5695 5687 5679 5671 5661 5651 5641 5631 5619 5608 5598 5588 5577 5564 5550 5538 5526 5513 5501 5486 5474 5463 5454 5446
5774 5770 5765 5764 5759 5758 5754 5745 5739 5734 5731 5725 5723 5720 5716 5712 5707 5704 5696 5691 5682 5673 5665 5656 5646 5636 5624 5613 5602 5592 5581 5568 5556 5544 5532 5521 5508 5495 5483 5470 5458 5449 5442 5434
5767 5762 5756 5751 5746 5745 5743 5733 5730 5728 5725 5718 5717 5713 5709 5704 5699 5693 5683 5678 5670 5661 5650 5640 5629 5616 5604 5595 5586 5574 5563 5552 5540 5528 5515 5503 5491 5479 5467 5457 5447 5438 5430 5422
5760 5754 5747 5741 5734 5735 5737 5727 5723 5718 5721 5715 5711 5707 5701 5695 5689 5683 5674 5665 5656 5646 5635 5622 5610 5601 5592 5580 5569 5558 5546 5534 5522 5511 5498 5485 5474 5463 5453 5445 5436 5428 5419 5409
5753 5747 5741 5733 5726 5723 5721 5716 5715 5712 5708 5706 5703 5697 5691 5684 5677 5668 5657 5646 5635 5625 5615 5604 5595 5586 5575 5564 5553 5541 5529 5517 5505 5492 5481 5470 5460 5449 5441 5434 5426 5417 5407 5398
5746 5738 5732 5723 5719 5718 5712 5709 5706 5703 5700 5692 5686 5681 5675 5667 5658 5649 5640 5631 5620 5610 5602 5592 5581 5570 5557 5546 5535 5523 5510 5499 5488 5477 5467 5456 5447 5438 5430 5423 5415 5406 5396 5387
5738 5728 5722 5715 5715 5708 5704 5701 5697 5694 5688 5682 5676 5669 5662 5653 5644 5635 5624 5614 5604 5594 5584 5573 5564 5551 5539 5527 5516 5506 5494 5483 5473 5463 5453 5444 5436 5428 5420 5413 5404 5395 5385 5375
5729 5721 5715 5710 5709 5700 5696 5692 5688 5682 5676 5670 5663 5656 5648 5639 5631 5620 5609 5599 5589 5577 5567 5555 5544 5534 5522 5510 5498 5489 5478 5469 5459 5450 5441 5434 5425 5418 5411 5403 5395 5385 5375 5364
5717 5710 5707 5702 5702 5693 5689 5684 5679 5672 5665 5658 5651 5642 5634 5623 5611 5602 5592 5581 5571 5561 5549 5538 5527 5517 5504 5491 5480 5470 5461 5453 5444 5437 5430 5423 5416 5409 5402 5394 5386 5377 5366 5354
5705 5700 5696 5694 5689 5683 5678 5673 5667 5660 5653 5643 5634 5625 5615 5605 5596 5587 5577 5566 5555 5543 5532 5520 5508 5497 5486 5474 5463 5452 5445 5437 5430 5424 5418 5413 5407 5401 5394 5386 5378 5367 5358 5347
5695 5690 5684 5680 5675 5670 5665 5658 5652 5645 5637 5628 5619 5609 5598 5589 5580 5570 5561 5548 5535 5524 5513 5501 5489 5476 5466 5455 5445 5436 5428 5421 5415 5411 5407 5403 5398 5393 5386 5378 5370 5362 5350 5340